User: anonymous   Login
Location: Iesi
(43.5167°N, 13.2333°E)
Time: 11:41:02
(UTC+00:00)
Language:

Cosmos 2218 Rocket - Orbit

View from above orbital plane
View from above orbital plane
View from above satellite
View from above satellite

Ground track
Ground track

The orbit data is extracted from the following two-line orbital elements,

1 22208U 92073B   20293.95793687 +.00000044 +00000-0 +30727-4 0  9996
2 22208 082.9219 195.1667 0033072 232.0293 139.2831 13.75158107403527
Epoch (UTC): 19 October 2020 22:59:25
Eccentricity: 0.0033072
inclination: 82.9219°
perigee height: 957 km
apogee height: 1005 km
right ascension of ascending node: 195.1667°
argument of perigee: 232.0293°
revolutions per day: 13.75158107
mean anomaly at epoch: 139.2831°
orbit number at epoch: 40352

The dashed part of the orbit path shows where the satellite is in the earth's shadow,  

DLR